Location: Norton
(51.3000°N, 0.8167°E)
Time: 12:23:15
(UTC+00:00)

USA 307 - Pass Details

Date: 03 March 2021
Orbit: 567 x 577 km, 54.0° (Epoch: 10 April)

Event Time Altitude Azimuth Distance (km) Brightness Sun altitude
Rises 18:14:40 0° 259° (W) 2,786 8.8 -6.0°
Reaches altitude 10° 18:16:56 10° 262° (W) 1,887 7.4 -6.4°
Maximum altitude 18:21:13 70° 346° (NNW) 614 3.1 -7.1°
Drops below altitude 10° 18:25:31 10° 71° (ENE) 1,884 4.9 -7.7°
Enters shadow 18:25:45 - 72° (ENE) 1,977 5.0 -7.8°
